#datetime,building,power
2023-12-22T00:00:00,axn,24.74
2023-12-22T00:01:00,axn,25.20
2023-12-22T00:02:00,axn,25.01
2023-12-22T00:03:00,axn,24.60
2023-12-22T00:04:00,axn,24.76
2023-12-22T00:05:00,axn,25.08
2023-12-22T00:06:00,axn,25.06
2023-12-22T00:07:00,axn,25.14
2023-12-22T00:08:00,axn,25.21
2023-12-22T00:09:00,axn,24.95
2023-12-22T00:10:00,axn,25.02
2023-12-22T00:11:00,axn,24.95
2023-12-22T00:12:00,axn,25.20
2023-12-22T00:13:00,axn,25.02
2023-12-22T00:14:00,axn,24.84
2023-12-22T00:15:00,axn,24.99
2023-12-22T00:16:00,axn,24.88
2023-12-22T00:17:00,axn,24.77
2023-12-22T00:18:00,axn,25.03
2023-12-22T00:19:00,axn,25.00
2023-12-22T00:20:00,axn,25.46
2023-12-22T00:21:00,axn,25.11
2023-12-22T00:22:00,axn,25.36
2023-12-22T00:23:00,axn,24.33
2023-12-22T00:24:00,axn,24.34
2023-12-22T00:25:00,axn,24.43
2023-12-22T00:26:00,axn,27.16
2023-12-22T00:27:00,axn,27.23
2023-12-22T00:28:00,axn,24.89
2023-12-22T00:29:00,axn,24.73
2023-12-22T00:30:00,axn,24.57
2023-12-22T00:31:00,axn,24.33
2023-12-22T00:32:00,axn,24.39
2023-12-22T00:33:00,axn,24.31
2023-12-22T00:34:00,axn,24.30
2023-12-22T00:35:00,axn,24.77
2023-12-22T00:36:00,axn,24.32
2023-12-22T00:37:00,axn,24.49
2023-12-22T00:38:00,axn,24.58
2023-12-22T00:39:00,axn,24.65
2023-12-22T00:40:00,axn,24.79
2023-12-22T00:41:00,axn,24.64
2023-12-22T00:42:00,axn,24.57
2023-12-22T00:43:00,axn,24.69
2023-12-22T00:44:00,axn,25.27
2023-12-22T00:45:00,axn,24.76
2023-12-22T00:46:00,axn,24.51
2023-12-22T00:47:00,axn,24.63
2023-12-22T00:48:00,axn,24.46
2023-12-22T00:49:00,axn,24.82
2023-12-22T00:50:00,axn,24.76
2023-12-22T00:51:00,axn,25.17
2023-12-22T00:52:00,axn,24.80
2023-12-22T00:53:00,axn,25.15
2023-12-22T00:54:00,axn,24.62
2023-12-22T00:55:00,axn,24.93
2023-12-22T00:56:00,axn,25.13
2023-12-22T00:57:00,axn,24.83
2023-12-22T00:58:00,axn,25.04
2023-12-22T00:59:00,axn,24.77
2023-12-22T01:00:00,axn,24.80
2023-12-22T01:01:00,axn,24.72
2023-12-22T01:02:00,axn,24.89
2023-12-22T01:03:00,axn,24.86
2023-12-22T01:04:00,axn,24.87
2023-12-22T01:05:00,axn,24.73
2023-12-22T01:06:00,axn,24.38
2023-12-22T01:07:00,axn,24.77
2023-12-22T01:08:00,axn,24.90
2023-12-22T01:09:00,axn,24.58
2023-12-22T01:10:00,axn,24.57
2023-12-22T01:11:00,axn,24.60
2023-12-22T01:12:00,axn,24.62
2023-12-22T01:13:00,axn,24.30
2023-12-22T01:14:00,axn,24.32
2023-12-22T01:15:00,axn,24.16
2023-12-22T01:16:00,axn,24.10
2023-12-22T01:17:00,axn,24.32
2023-12-22T01:18:00,axn,24.48
2023-12-22T01:19:00,axn,24.56
2023-12-22T01:20:00,axn,25.56
2023-12-22T01:21:00,axn,24.53
2023-12-22T01:22:00,axn,24.64
2023-12-22T01:23:00,axn,24.52
2023-12-22T01:24:00,axn,24.50
2023-12-22T01:25:00,axn,24.71
2023-12-22T01:26:00,axn,24.47
2023-12-22T01:27:00,axn,24.70
2023-12-22T01:28:00,axn,24.66
2023-12-22T01:29:00,axn,24.89
2023-12-22T01:30:00,axn,24.62
2023-12-22T01:31:00,axn,24.80
2023-12-22T01:32:00,axn,24.59
2023-12-22T01:33:00,axn,24.90
2023-12-22T01:34:00,axn,24.69
2023-12-22T01:35:00,axn,24.89
2023-12-22T01:36:00,axn,24.48
2023-12-22T01:37:00,axn,24.86
2023-12-22T01:38:00,axn,24.82
2023-12-22T01:39:00,axn,25.17
2023-12-22T01:40:00,axn,24.81
2023-12-22T01:41:00,axn,24.80
2023-12-22T01:42:00,axn,24.87
2023-12-22T01:43:00,axn,24.96
2023-12-22T01:44:00,axn,25.03
2023-12-22T01:45:00,axn,25.46
2023-12-22T01:46:00,axn,25.08
2023-12-22T01:47:00,axn,25.25
2023-12-22T01:48:00,axn,25.16
2023-12-22T01:49:00,axn,25.25
2023-12-22T01:50:00,axn,25.08
2023-12-22T01:51:00,axn,25.19
2023-12-22T01:52:00,axn,25.08
2023-12-22T01:53:00,axn,25.07
2023-12-22T01:54:00,axn,25.10
2023-12-22T01:55:00,axn,25.01
2023-12-22T01:56:00,axn,25.03
2023-12-22T01:57:00,axn,25.52
2023-12-22T01:58:00,axn,25.16
2023-12-22T01:59:00,axn,25.28
2023-12-22T02:00:00,axn,24.92
2023-12-22T02:01:00,axn,25.34
2023-12-22T02:02:00,axn,25.05
2023-12-22T02:03:00,axn,25.07
2023-12-22T02:04:00,axn,24.85
2023-12-22T02:05:00,axn,25.04
2023-12-22T02:06:00,axn,25.38
2023-12-22T02:07:00,axn,25.66
2023-12-22T02:08:00,axn,25.37
2023-12-22T02:09:00,axn,25.14
2023-12-22T02:10:00,axn,25.09
2023-12-22T02:11:00,axn,25.09
2023-12-22T02:12:00,axn,25.15
2023-12-22T02:13:00,axn,25.20
2023-12-22T02:14:00,axn,24.94
2023-12-22T02:15:00,axn,24.99
2023-12-22T02:16:00,axn,25.00
2023-12-22T02:17:00,axn,25.09
2023-12-22T02:18:00,axn,25.70
2023-12-22T02:19:00,axn,25.16
2023-12-22T02:20:00,axn,25.12
2023-12-22T02:21:00,axn,25.07
2023-12-22T02:22:00,axn,24.88
2023-12-22T02:23:00,axn,24.78
2023-12-22T02:24:00,axn,24.83
2023-12-22T02:25:00,axn,24.85
2023-12-22T02:26:00,axn,25.06
2023-12-22T02:27:00,axn,25.10
2023-12-22T02:28:00,axn,25.19
2023-12-22T02:29:00,axn,25.09
2023-12-22T02:30:00,axn,24.96
2023-12-22T02:31:00,axn,25.40
2023-12-22T02:32:00,axn,25.14
2023-12-22T02:33:00,axn,25.50
2023-12-22T02:34:00,axn,25.13
2023-12-22T02:35:00,axn,25.11
2023-12-22T02:36:00,axn,25.06
2023-12-22T02:37:00,axn,25.32
2023-12-22T02:38:00,axn,25.50
2023-12-22T02:39:00,axn,25.52
2023-12-22T02:40:00,axn,25.51
2023-12-22T02:41:00,axn,25.48
2023-12-22T02:42:00,axn,25.57
2023-12-22T02:43:00,axn,25.77
2023-12-22T02:44:00,axn,25.34
2023-12-22T02:45:00,axn,25.29
2023-12-22T02:46:00,axn,25.25
2023-12-22T02:47:00,axn,25.92
2023-12-22T02:48:00,axn,25.41
2023-12-22T02:49:00,axn,25.50
2023-12-22T02:50:00,axn,25.48
2023-12-22T02:51:00,axn,25.62
2023-12-22T02:52:00,axn,25.55
2023-12-22T02:53:00,axn,25.60
2023-12-22T02:54:00,axn,25.39
2023-12-22T02:55:00,axn,25.49
2023-12-22T02:56:00,axn,25.35
2023-12-22T02:57:00,axn,25.43
2023-12-22T02:58:00,axn,25.36
2023-12-22T02:59:00,axn,25.31
2023-12-22T03:00:00,axn,25.43
2023-12-22T03:01:00,axn,25.28
2023-12-22T03:02:00,axn,25.16
2023-12-22T03:03:00,axn,25.03
2023-12-22T03:04:00,axn,24.85
2023-12-22T03:05:00,axn,24.87
2023-12-22T03:06:00,axn,24.98
2023-12-22T03:07:00,axn,25.01
2023-12-22T03:08:00,axn,24.94
2023-12-22T03:09:00,axn,24.80
2023-12-22T03:10:00,axn,24.86
2023-12-22T03:11:00,axn,25.13
2023-12-22T03:12:00,axn,25.11
2023-12-22T03:13:00,axn,25.12
2023-12-22T03:14:00,axn,24.89
2023-12-22T03:15:00,axn,27.94
2023-12-22T03:16:00,axn,27.85
2023-12-22T03:17:00,axn,26.03
2023-12-22T03:18:00,axn,25.19
2023-12-22T03:19:00,axn,25.16
2023-12-22T03:20:00,axn,25.37
2023-12-22T03:21:00,axn,25.30
2023-12-22T03:22:00,axn,25.27
2023-12-22T03:23:00,axn,25.12
2023-12-22T03:24:00,axn,25.19
2023-12-22T03:25:00,axn,25.67
2023-12-22T03:26:00,axn,25.32
2023-12-22T03:27:00,axn,25.37
2023-12-22T03:28:00,axn,25.32
2023-12-22T03:29:00,axn,25.04
2023-12-22T03:30:00,axn,24.83
2023-12-22T03:31:00,axn,24.88
2023-12-22T03:32:00,axn,39.92
2023-12-22T03:33:00,axn,39.26
2023-12-22T03:34:00,axn,38.92
2023-12-22T03:35:00,axn,39.00
2023-12-22T03:36:00,axn,38.66
2023-12-22T03:37:00,axn,24.94
2023-12-22T03:38:00,axn,25.12
2023-12-22T03:39:00,axn,24.91
2023-12-22T03:40:00,axn,25.09
2023-12-22T03:41:00,axn,24.95
2023-12-22T03:42:00,axn,25.03
2023-12-22T03:43:00,axn,24.72
2023-12-22T03:44:00,axn,24.66
2023-12-22T03:45:00,axn,24.71
2023-12-22T03:46:00,axn,24.89
2023-12-22T03:47:00,axn,24.72
2023-12-22T03:48:00,axn,24.87
2023-12-22T03:49:00,axn,25.57
2023-12-22T03:50:00,axn,24.94
2023-12-22T03:51:00,axn,24.74
2023-12-22T03:52:00,axn,24.84
2023-12-22T03:53:00,axn,24.71
2023-12-22T03:54:00,axn,24.74
2023-12-22T03:55:00,axn,24.75
2023-12-22T03:56:00,axn,24.64
2023-12-22T03:57:00,axn,24.74
2023-12-22T03:58:00,axn,35.07
2023-12-22T03:59:00,axn,35.08
2023-12-22T04:00:00,axn,34.89
2023-12-22T04:01:00,axn,35.17
2023-12-22T04:02:00,axn,24.50
2023-12-22T04:03:00,axn,24.39
2023-12-22T04:04:00,axn,24.41
2023-12-22T04:05:00,axn,24.40
2023-12-22T04:06:00,axn,24.39
2023-12-22T04:07:00,axn,24.54
2023-12-22T04:08:00,axn,24.41
2023-12-22T04:09:00,axn,24.44
2023-12-22T04:10:00,axn,24.38
2023-12-22T04:11:00,axn,24.64
2023-12-22T04:12:00,axn,24.31
2023-12-22T04:13:00,axn,24.42
2023-12-22T04:14:00,axn,25.20
2023-12-22T04:15:00,axn,24.80
2023-12-22T04:16:00,axn,24.12
2023-12-22T04:17:00,axn,24.96
2023-12-22T04:18:00,axn,24.29
2023-12-22T04:19:00,axn,24.26
2023-12-22T04:20:00,axn,24.22
2023-12-22T04:21:00,axn,24.20
2023-12-22T04:22:00,axn,24.14
2023-12-22T04:23:00,axn,24.14
2023-12-22T04:24:00,axn,23.94
2023-12-22T04:25:00,axn,23.90
2023-12-22T04:26:00,axn,24.22
2023-12-22T04:27:00,axn,24.37
2023-12-22T04:28:00,axn,24.42
2023-12-22T04:29:00,axn,24.11
2023-12-22T04:30:00,axn,24.02
2023-12-22T04:31:00,axn,24.03
2023-12-22T04:32:00,axn,24.13
2023-12-22T04:33:00,axn,24.04
2023-12-22T04:34:00,axn,23.95
2023-12-22T04:35:00,axn,24.10
2023-12-22T04:36:00,axn,23.98
2023-12-22T04:37:00,axn,24.10
2023-12-22T04:38:00,axn,24.30
2023-12-22T04:39:00,axn,24.21
2023-12-22T04:40:00,axn,24.16
2023-12-22T04:41:00,axn,28.44
2023-12-22T04:42:00,axn,28.50
2023-12-22T04:43:00,axn,28.91
2023-12-22T04:44:00,axn,24.29
2023-12-22T04:45:00,axn,24.78
2023-12-22T04:46:00,axn,24.23
2023-12-22T04:47:00,axn,24.22
2023-12-22T04:48:00,axn,24.30
2023-12-22T04:49:00,axn,24.08
2023-12-22T04:50:00,axn,24.13
2023-12-22T04:51:00,axn,24.06
2023-12-22T04:52:00,axn,24.00
2023-12-22T04:53:00,axn,24.41
2023-12-22T04:54:00,axn,23.67
2023-12-22T04:55:00,axn,23.76
2023-12-22T04:56:00,axn,23.89
2023-12-22T04:57:00,axn,24.16
2023-12-22T04:58:00,axn,23.79
2023-12-22T04:59:00,axn,23.82
2023-12-22T05:00:00,axn,23.82
2023-12-22T05:01:00,axn,23.69
2023-12-22T05:02:00,axn,23.60
2023-12-22T05:03:00,axn,23.82
2023-12-22T05:04:00,axn,23.64
2023-12-22T05:05:00,axn,23.51
2023-12-22T05:06:00,axn,23.22
2023-12-22T05:07:00,axn,23.27
2023-12-22T05:08:00,axn,23.28
2023-12-22T05:09:00,axn,23.28
2023-12-22T05:10:00,axn,23.25
2023-12-22T05:11:00,axn,23.25
2023-12-22T05:12:00,axn,23.19
2023-12-22T05:13:00,axn,23.74
2023-12-22T05:14:00,axn,23.64
2023-12-22T05:15:00,axn,24.36
2023-12-22T05:16:00,axn,24.38
2023-12-22T05:17:00,axn,23.70
2023-12-22T05:18:00,axn,23.85
2023-12-22T05:19:00,axn,24.05
2023-12-22T05:20:00,axn,23.89
2023-12-22T05:21:00,axn,23.89
2023-12-22T05:22:00,axn,23.75
2023-12-22T05:23:00,axn,23.84
2023-12-22T05:24:00,axn,23.98
2023-12-22T05:25:00,axn,23.95
2023-12-22T05:26:00,axn,23.86
2023-12-22T05:27:00,axn,24.23
2023-12-22T05:28:00,axn,24.07
2023-12-22T05:29:00,axn,23.95
2023-12-22T05:30:00,axn,23.90
2023-12-22T05:31:00,axn,23.82
2023-12-22T05:32:00,axn,23.74
2023-12-22T05:33:00,axn,24.14
2023-12-22T05:34:00,axn,23.63
2023-12-22T05:35:00,axn,24.00
2023-12-22T05:36:00,axn,23.63
2023-12-22T05:37:00,axn,23.95
2023-12-22T05:38:00,axn,23.69
2023-12-22T05:39:00,axn,23.85
2023-12-22T05:40:00,axn,23.64
2023-12-22T05:41:00,axn,23.76
2023-12-22T05:42:00,axn,23.69
2023-12-22T05:43:00,axn,23.55
2023-12-22T05:44:00,axn,23.43
2023-12-22T05:45:00,axn,23.39
2023-12-22T05:46:00,axn,23.68
2023-12-22T05:47:00,axn,23.69
2023-12-22T05:48:00,axn,24.06
2023-12-22T05:49:00,axn,23.89
2023-12-22T05:50:00,axn,23.57
2023-12-22T05:51:00,axn,24.21
2023-12-22T05:52:00,axn,24.12
2023-12-22T05:53:00,axn,24.10
2023-12-22T05:54:00,axn,24.53
2023-12-22T05:55:00,axn,24.55
2023-12-22T05:56:00,axn,24.19
2023-12-22T05:57:00,axn,24.15
2023-12-22T05:58:00,axn,24.26
2023-12-22T05:59:00,axn,24.06
2023-12-22T06:00:00,axn,24.13
2023-12-22T06:01:00,axn,24.15
2023-12-22T06:02:00,axn,23.54
2023-12-22T06:03:00,axn,24.02
2023-12-22T06:04:00,axn,23.58
2023-12-22T06:05:00,axn,23.45
2023-12-22T06:06:00,axn,23.27
2023-12-22T06:07:00,axn,23.28
2023-12-22T06:08:00,axn,23.34
2023-12-22T06:09:00,axn,23.33
2023-12-22T06:10:00,axn,23.35
2023-12-22T06:11:00,axn,23.75
2023-12-22T06:12:00,axn,23.27
2023-12-22T06:13:00,axn,23.23
2023-12-22T06:14:00,axn,23.18
2023-12-22T06:15:00,axn,23.05
2023-12-22T06:16:00,axn,23.60
2023-12-22T06:17:00,axn,23.14
2023-12-22T06:18:00,axn,23.59
2023-12-22T06:19:00,axn,23.43
2023-12-22T06:20:00,axn,24.67
2023-12-22T06:21:00,axn,24.30
2023-12-22T06:22:00,axn,24.16
2023-12-22T06:23:00,axn,23.98
2023-12-22T06:24:00,axn,24.05
2023-12-22T06:25:00,axn,23.91
2023-12-22T06:26:00,axn,23.53
2023-12-22T06:27:00,axn,23.98
2023-12-22T06:28:00,axn,23.69
2023-12-22T06:29:00,axn,23.63
2023-12-22T06:30:00,axn,23.75
2023-12-22T06:31:00,axn,23.38
2023-12-22T06:32:00,axn,23.35
2023-12-22T06:33:00,axn,23.30
2023-12-22T06:34:00,axn,23.29
2023-12-22T06:35:00,axn,23.02
2023-12-22T06:36:00,axn,23.34
2023-12-22T06:37:00,axn,23.70
2023-12-22T06:38:00,axn,23.10
2023-12-22T06:39:00,axn,23.13
2023-12-22T06:40:00,axn,23.07
2023-12-22T06:41:00,axn,23.09
2023-12-22T06:42:00,axn,22.95
2023-12-22T06:43:00,axn,22.88
2023-12-22T06:44:00,axn,23.09
2023-12-22T06:45:00,axn,22.66
2023-12-22T06:46:00,axn,22.55
2023-12-22T06:47:00,axn,22.87
2023-12-22T06:48:00,axn,25.82
2023-12-22T06:49:00,axn,22.83
2023-12-22T06:50:00,axn,22.64
2023-12-22T06:51:00,axn,23.16
2023-12-22T06:52:00,axn,22.95
2023-12-22T06:53:00,axn,22.71
2023-12-22T06:54:00,axn,23.00
2023-12-22T06:55:00,axn,23.14
2023-12-22T06:56:00,axn,23.18
2023-12-22T06:57:00,axn,22.98
2023-12-22T06:58:00,axn,22.97
2023-12-22T06:59:00,axn,22.87
2023-12-22T07:00:00,axn,22.76
2023-12-22T07:01:00,axn,23.35
2023-12-22T07:02:00,axn,23.02
2023-12-22T07:03:00,axn,22.73
2023-12-22T07:04:00,axn,22.82
2023-12-22T07:05:00,axn,22.44
2023-12-22T07:06:00,axn,22.51
2023-12-22T07:07:00,axn,22.35
2023-12-22T07:08:00,axn,22.52
2023-12-22T07:09:00,axn,22.37
2023-12-22T07:10:00,axn,22.57
2023-12-22T07:11:00,axn,22.47
2023-12-22T07:12:00,axn,22.60
2023-12-22T07:13:00,axn,22.58
2023-12-22T07:14:00,axn,23.28
2023-12-22T07:15:00,axn,22.48
2023-12-22T07:16:00,axn,22.55
2023-12-22T07:17:00,axn,22.53
2023-12-22T07:18:00,axn,22.70
2023-12-22T07:19:00,axn,22.64
2023-12-22T07:20:00,axn,22.78
2023-12-22T07:21:00,axn,28.47
2023-12-22T07:22:00,axn,28.39
2023-12-22T07:23:00,axn,28.32
2023-12-22T07:24:00,axn,22.66
2023-12-22T07:25:00,axn,22.42
2023-12-22T07:26:00,axn,22.35
2023-12-22T07:27:00,axn,22.42
2023-12-22T07:28:00,axn,22.75
2023-12-22T07:29:00,axn,22.64
2023-12-22T07:30:00,axn,22.28
2023-12-22T07:31:00,axn,22.42
2023-12-22T07:32:00,axn,22.25
2023-12-22T07:33:00,axn,22.09
2023-12-22T07:34:00,axn,22.46
2023-12-22T07:35:00,axn,22.20
2023-12-22T07:36:00,axn,22.48
2023-12-22T07:37:00,axn,22.87
2023-12-22T07:38:00,axn,22.82
2023-12-22T07:39:00,axn,22.65
2023-12-22T07:40:00,axn,22.49
2023-12-22T07:41:00,axn,22.32
2023-12-22T07:42:00,axn,22.64
2023-12-22T07:43:00,axn,22.45
2023-12-22T07:44:00,axn,23.07
2023-12-22T07:45:00,axn,22.73
2023-12-22T07:46:00,axn,22.40
2023-12-22T07:47:00,axn,22.76
2023-12-22T07:48:00,axn,22.77
2023-12-22T07:49:00,axn,22.68
2023-12-22T07:50:00,axn,22.75
2023-12-22T07:51:00,axn,22.73
2023-12-22T07:52:00,axn,23.10
2023-12-22T07:53:00,axn,22.95
2023-12-22T07:54:00,axn,23.11
2023-12-22T07:55:00,axn,22.82
2023-12-22T07:56:00,axn,23.12
2023-12-22T07:57:00,axn,23.42
2023-12-22T07:58:00,axn,23.26
2023-12-22T07:59:00,axn,23.40
2023-12-22T08:00:00,axn,23.77
2023-12-22T08:01:00,axn,23.73
2023-12-22T08:02:00,axn,23.70
2023-12-22T08:03:00,axn,23.71
2023-12-22T08:04:00,axn,23.69
2023-12-22T08:05:00,axn,24.04
2023-12-22T08:06:00,axn,24.19
2023-12-22T08:07:00,axn,24.29
2023-12-22T08:08:00,axn,23.89
2023-12-22T08:09:00,axn,23.82
2023-12-22T08:10:00,axn,24.10
2023-12-22T08:11:00,axn,25.07
2023-12-22T08:12:00,axn,25.22
2023-12-22T08:13:00,axn,23.97
2023-12-22T08:14:00,axn,23.97
2023-12-22T08:15:00,axn,23.69
2023-12-22T08:16:00,axn,23.92
2023-12-22T08:17:00,axn,23.96
2023-12-22T08:18:00,axn,23.95
2023-12-22T08:19:00,axn,24.41
2023-12-22T08:20:00,axn,24.07
2023-12-22T08:21:00,axn,24.03
2023-12-22T08:22:00,axn,24.44
2023-12-22T08:23:00,axn,24.02
2023-12-22T08:24:00,axn,24.19
2023-12-22T08:25:00,axn,24.33
2023-12-22T08:26:00,axn,24.29
2023-12-22T08:27:00,axn,24.36
2023-12-22T08:28:00,axn,24.66
2023-12-22T08:29:00,axn,24.34
2023-12-22T08:30:00,axn,34.85
2023-12-22T08:31:00,axn,34.78
2023-12-22T08:32:00,axn,35.07
2023-12-22T08:33:00,axn,34.96
2023-12-22T08:34:00,axn,25.04
2023-12-22T08:35:00,axn,24.68
2023-12-22T08:36:00,axn,24.71
2023-12-22T08:37:00,axn,24.75
2023-12-22T08:38:00,axn,25.00
2023-12-22T08:39:00,axn,24.78
2023-12-22T08:40:00,axn,24.95
2023-12-22T08:41:00,axn,24.85
2023-12-22T08:42:00,axn,24.87
2023-12-22T08:43:00,axn,39.45
2023-12-22T08:44:00,axn,39.43
2023-12-22T08:45:00,axn,39.36
2023-12-22T08:46:00,axn,39.29
2023-12-22T08:47:00,axn,39.52
2023-12-22T08:48:00,axn,25.30
2023-12-22T08:49:00,axn,25.28
2023-12-22T08:50:00,axn,25.23
2023-12-22T08:51:00,axn,25.07
2023-12-22T08:52:00,axn,25.21
2023-12-22T08:53:00,axn,25.11
2023-12-22T08:54:00,axn,25.20
2023-12-22T08:55:00,axn,25.11
2023-12-22T08:56:00,axn,25.21
2023-12-22T08:57:00,axn,24.53
2023-12-22T08:58:00,axn,24.80
2023-12-22T08:59:00,axn,24.33
2023-12-22T09:00:00,axn,24.55
2023-12-22T09:01:00,axn,24.73
2023-12-22T09:02:00,axn,24.83
2023-12-22T09:03:00,axn,30.07
2023-12-22T09:04:00,axn,24.65
2023-12-22T09:05:00,axn,24.64
2023-12-22T09:06:00,axn,24.66
2023-12-22T09:07:00,axn,24.53
2023-12-22T09:08:00,axn,24.30
2023-12-22T09:09:00,axn,25.12
2023-12-22T09:10:00,axn,25.21
2023-12-22T09:11:00,axn,24.45
2023-12-22T09:12:00,axn,24.79
2023-12-22T09:13:00,axn,24.81
2023-12-22T09:14:00,axn,24.21
2023-12-22T09:15:00,axn,24.69
2023-12-22T09:16:00,axn,24.32
2023-12-22T09:17:00,axn,24.50
2023-12-22T09:18:00,axn,24.68
2023-12-22T09:19:00,axn,24.89
2023-12-22T09:20:00,axn,24.26
2023-12-22T09:21:00,axn,24.92
2023-12-22T09:22:00,axn,24.89
2023-12-22T09:23:00,axn,25.12
2023-12-22T09:24:00,axn,25.25
2023-12-22T09:25:00,axn,25.20
2023-12-22T09:26:00,axn,25.52
2023-12-22T09:27:00,axn,26.43
2023-12-22T09:28:00,axn,25.95
2023-12-22T09:29:00,axn,26.30
2023-12-22T09:30:00,axn,26.15
2023-12-22T09:31:00,axn,26.18
2023-12-22T09:32:00,axn,25.75
2023-12-22T09:33:00,axn,25.59
2023-12-22T09:34:00,axn,25.47
2023-12-22T09:35:00,axn,25.64
2023-12-22T09:36:00,axn,26.01
2023-12-22T09:37:00,axn,26.13
2023-12-22T09:38:00,axn,26.13
2023-12-22T09:39:00,axn,26.04
2023-12-22T09:40:00,axn,25.85
2023-12-22T09:41:00,axn,28.91
2023-12-22T09:42:00,axn,28.88
2023-12-22T09:43:00,axn,26.35
2023-12-22T09:44:00,axn,26.23
2023-12-22T09:45:00,axn,26.40
2023-12-22T09:46:00,axn,26.47
2023-12-22T09:47:00,axn,26.72
2023-12-22T09:48:00,axn,26.62
2023-12-22T09:49:00,axn,25.96
2023-12-22T09:50:00,axn,25.53
2023-12-22T09:51:00,axn,25.63
2023-12-22T09:52:00,axn,25.63
2023-12-22T09:53:00,axn,25.69
2023-12-22T09:54:00,axn,25.53
2023-12-22T09:55:00,axn,25.76
2023-12-22T09:56:00,axn,25.96
2023-12-22T09:57:00,axn,25.93
2023-12-22T09:58:00,axn,25.93
2023-12-22T09:59:00,axn,25.81
2023-12-22T10:00:00,axn,25.78
2023-12-22T10:01:00,axn,25.75
2023-12-22T10:02:00,axn,28.09
2023-12-22T10:03:00,axn,25.83
2023-12-22T10:04:00,axn,25.80
2023-12-22T10:05:00,axn,25.90
2023-12-22T10:06:00,axn,25.71
2023-12-22T10:07:00,axn,26.50
2023-12-22T10:08:00,axn,25.70
2023-12-22T10:09:00,axn,26.10
2023-12-22T10:10:00,axn,25.65
2023-12-22T10:11:00,axn,25.74
2023-12-22T10:12:00,axn,25.91
2023-12-22T10:13:00,axn,25.82
2023-12-22T10:14:00,axn,25.71
2023-12-22T10:15:00,axn,25.72
2023-12-22T10:16:00,axn,25.72
2023-12-22T10:17:00,axn,25.71
2023-12-22T10:18:00,axn,25.91
2023-12-22T10:19:00,axn,26.45
2023-12-22T10:20:00,axn,25.95
2023-12-22T10:21:00,axn,25.74
2023-12-22T10:22:00,axn,26.51
2023-12-22T10:23:00,axn,26.71
2023-12-22T10:24:00,axn,26.37
2023-12-22T10:25:00,axn,26.23
2023-12-22T10:26:00,axn,43.69
2023-12-22T10:27:00,axn,26.24
2023-12-22T10:28:00,axn,25.91
2023-12-22T10:29:00,axn,25.99
2023-12-22T10:30:00,axn,25.73
2023-12-22T10:31:00,axn,25.70
2023-12-22T10:32:00,axn,26.12
2023-12-22T10:33:00,axn,43.18
2023-12-22T10:34:00,axn,26.03
2023-12-22T10:35:00,axn,26.08
2023-12-22T10:36:00,axn,25.84
2023-12-22T10:37:00,axn,25.99
2023-12-22T10:38:00,axn,25.99
2023-12-22T10:39:00,axn,26.05
2023-12-22T10:40:00,axn,26.21
2023-12-22T10:41:00,axn,25.91
2023-12-22T10:42:00,axn,25.98
2023-12-22T10:43:00,axn,26.10
2023-12-22T10:44:00,axn,26.05
2023-12-22T10:45:00,axn,26.12
2023-12-22T10:46:00,axn,26.23
2023-12-22T10:47:00,axn,26.23
2023-12-22T10:48:00,axn,26.21
2023-12-22T10:49:00,axn,26.52
2023-12-22T10:50:00,axn,26.40
2023-12-22T10:51:00,axn,26.25
2023-12-22T10:52:00,axn,26.35
2023-12-22T10:53:00,axn,26.46
2023-12-22T10:54:00,axn,26.33
2023-12-22T10:55:00,axn,26.46
2023-12-22T10:56:00,axn,26.18
2023-12-22T10:57:00,axn,26.22
2023-12-22T10:58:00,axn,25.96
2023-12-22T10:59:00,axn,26.29
2023-12-22T11:00:00,axn,26.54
2023-12-22T11:01:00,axn,26.92
2023-12-22T11:02:00,axn,26.94
2023-12-22T11:03:00,axn,26.91
2023-12-22T11:04:00,axn,27.47
2023-12-22T11:05:00,axn,27.07
2023-12-22T11:06:00,axn,26.98
2023-12-22T11:07:00,axn,27.70
2023-12-22T11:08:00,axn,28.47
2023-12-22T11:09:00,axn,26.66
2023-12-22T11:10:00,axn,27.13
2023-12-22T11:11:00,axn,26.57
2023-12-22T11:12:00,axn,26.96
2023-12-22T11:13:00,axn,27.19
2023-12-22T11:14:00,axn,26.92
2023-12-22T11:15:00,axn,26.95
2023-12-22T11:16:00,axn,26.85
2023-12-22T11:17:00,axn,26.76
2023-12-22T11:18:00,axn,26.79
2023-12-22T11:19:00,axn,26.72
2023-12-22T11:20:00,axn,26.93
2023-12-22T11:21:00,axn,26.55
2023-12-22T11:22:00,axn,26.73
2023-12-22T11:23:00,axn,26.90
2023-12-22T11:24:00,axn,26.64
2023-12-22T11:25:00,axn,26.45
2023-12-22T11:26:00,axn,26.34
2023-12-22T11:27:00,axn,27.14
2023-12-22T11:28:00,axn,27.30
2023-12-22T11:29:00,axn,27.21
2023-12-22T11:30:00,axn,26.64
2023-12-22T11:31:00,axn,26.64
2023-12-22T11:32:00,axn,26.69
2023-12-22T11:33:00,axn,27.04
2023-12-22T11:34:00,axn,26.86
2023-12-22T11:35:00,axn,26.81
2023-12-22T11:36:00,axn,27.30
2023-12-22T11:37:00,axn,27.23
2023-12-22T11:38:00,axn,27.20
2023-12-22T11:39:00,axn,26.96
2023-12-22T11:40:00,axn,27.01
2023-12-22T11:41:00,axn,26.73
2023-12-22T11:42:00,axn,26.70
2023-12-22T11:43:00,axn,26.51
2023-12-22T11:44:00,axn,27.29
2023-12-22T11:45:00,axn,27.11
2023-12-22T11:46:00,axn,26.76
2023-12-22T11:47:00,axn,26.73
2023-12-22T11:48:00,axn,26.92
2023-12-22T11:49:00,axn,26.76
2023-12-22T11:50:00,axn,26.78
2023-12-22T11:51:00,axn,27.32
2023-12-22T11:52:00,axn,27.08
2023-12-22T11:53:00,axn,27.10
2023-12-22T11:54:00,axn,26.97
2023-12-22T11:55:00,axn,26.73
2023-12-22T11:56:00,axn,27.07
2023-12-22T11:57:00,axn,27.69
2023-12-22T11:58:00,axn,27.34
2023-12-22T11:59:00,axn,27.28
2023-12-22T12:00:00,axn,27.21
2023-12-22T12:01:00,axn,27.41
2023-12-22T12:02:00,axn,28.02
2023-12-22T12:03:00,axn,27.85
2023-12-22T12:04:00,axn,28.34
2023-12-22T12:05:00,axn,47.23
2023-12-22T12:06:00,axn,49.93
2023-12-22T12:07:00,axn,42.72
2023-12-22T12:08:00,axn,42.54
2023-12-22T12:09:00,axn,42.33
2023-12-22T12:10:00,axn,27.91
2023-12-22T12:11:00,axn,28.01
2023-12-22T12:12:00,axn,28.04
2023-12-22T12:13:00,axn,27.66
2023-12-22T12:14:00,axn,27.45
2023-12-22T12:15:00,axn,27.11
2023-12-22T12:16:00,axn,27.68
2023-12-22T12:17:00,axn,27.51
2023-12-22T12:18:00,axn,27.38
2023-12-22T12:19:00,axn,27.34
2023-12-22T12:20:00,axn,27.24
2023-12-22T12:21:00,axn,27.57
2023-12-22T12:22:00,axn,27.79
2023-12-22T12:23:00,axn,27.77
2023-12-22T12:24:00,axn,27.69
2023-12-22T12:25:00,axn,27.65
2023-12-22T12:26:00,axn,27.62
2023-12-22T12:27:00,axn,27.44
2023-12-22T12:28:00,axn,30.20
2023-12-22T12:29:00,axn,30.00
2023-12-22T12:30:00,axn,27.12
2023-12-22T12:31:00,axn,43.18
2023-12-22T12:32:00,axn,27.11
2023-12-22T12:33:00,axn,27.08
2023-12-22T12:34:00,axn,27.14
2023-12-22T12:35:00,axn,26.94
2023-12-22T12:36:00,axn,26.95
2023-12-22T12:37:00,axn,26.98
2023-12-22T12:38:00,axn,27.08
2023-12-22T12:39:00,axn,26.82
2023-12-22T12:40:00,axn,27.13
2023-12-22T12:41:00,axn,26.97
2023-12-22T12:42:00,axn,26.67
2023-12-22T12:43:00,axn,26.89
2023-12-22T12:44:00,axn,26.91
2023-12-22T12:45:00,axn,27.07
2023-12-22T12:46:00,axn,27.05
2023-12-22T12:47:00,axn,27.25
2023-12-22T12:48:00,axn,27.52
2023-12-22T12:49:00,axn,26.91
2023-12-22T12:50:00,axn,26.64
2023-12-22T12:51:00,axn,26.88
2023-12-22T12:52:00,axn,27.17
2023-12-22T12:53:00,axn,27.41
2023-12-22T12:54:00,axn,27.91
2023-12-22T12:55:00,axn,26.96
2023-12-22T12:56:00,axn,26.88
2023-12-22T12:57:00,axn,26.82
2023-12-22T12:58:00,axn,26.79
2023-12-22T12:59:00,axn,27.19
2023-12-22T13:00:00,axn,26.84
2023-12-22T13:01:00,axn,27.02
2023-12-22T13:02:00,axn,26.85
2023-12-22T13:03:00,axn,26.59
2023-12-22T13:04:00,axn,26.67
2023-12-22T13:05:00,axn,27.31
2023-12-22T13:06:00,axn,27.25
2023-12-22T13:07:00,axn,37.46
2023-12-22T13:08:00,axn,37.11
2023-12-22T13:09:00,axn,36.87
2023-12-22T13:10:00,axn,37.19
2023-12-22T13:11:00,axn,26.62
2023-12-22T13:12:00,axn,27.04
2023-12-22T13:13:00,axn,26.73
2023-12-22T13:14:00,axn,26.51
2023-12-22T13:15:00,axn,26.53
2023-12-22T13:16:00,axn,26.34
2023-12-22T13:17:00,axn,26.14
2023-12-22T13:18:00,axn,26.29